TimeEDT,TemperatureF,Dew PointF,Humidity,Sea Level PressureIn,VisibilityMPH,Wind Direction,Wind SpeedMPH,Gust SpeedMPH,PrecipitationIn,Events,Conditions,WindDirDegrees,DateUTC
12:54 AM,66.0,63.0,90,30.09,5.0,Calm,Calm,-,N/A,,Clear,0,2007-06-19 04:54:00
1:54 AM,64.0,62.1,93,30.09,6.0,Variable,3.5,-,N/A,,Partly Cloudy,0,2007-06-19 05:54:00
2:54 AM,64.0,62.1,93,30.08,5.0,NNE,3.5,-,N/A,,Clear,20,2007-06-19 06:54:00
3:54 AM,64.0,61.0,90,30.05,6.0,Calm,Calm,-,N/A,,Clear,0,2007-06-19 07:54:00
4:54 AM,64.0,61.0,90,30.07,5.0,Calm,Calm,-,N/A,,Partly Cloudy,0,2007-06-19 08:54:00
5:54 AM,64.0,61.0,90,30.08,5.0,NW,4.6,-,N/A,,Scattered Clouds,310,2007-06-19 09:54:00
6:34 AM,62.6,60.8,94,30.14,2.5,Calm,Calm,-,N/A,,Clear,0,2007-06-19 10:34:00
6:42 AM,64.4,60.8,88,30.15,4.0,Calm,Calm,-,N/A,,Clear,0,2007-06-19 10:42:00
6:54 AM,64.0,61.0,90,30.09,4.0,Calm,Calm,-,N/A,,Clear,0,2007-06-19 10:54:00
7:54 AM,64.0,61.0,90,30.12,4.0,SSE,3.5,-,N/A,,Clear,160,2007-06-19 11:54:00
8:54 AM,66.9,61.0,81,30.11,5.0,Calm,Calm,-,N/A,,Haze,0,2007-06-19 12:54:00
9:54 AM,73.0,63.0,71,30.10,7.0,Calm,Calm,-,N/A,,Clear,0,2007-06-19 13:54:00
10:54 AM,78.1,62.1,58,30.08,8.0,Calm,Calm,-,N/A,,Clear,0,2007-06-19 14:54:00
11:54 AM,82.0,62.1,51,30.05,10.0,SSW,5.8,-,N/A,,Clear,200,2007-06-19 15:54:00
12:54 PM,84.0,62.1,47,30.02,10.0,South,11.5,-,N/A,,Scattered Clouds,180,2007-06-19 16:54:00
1:54 PM,82.0,63.0,52,30.01,10.0,Variable,6.9,-,0.00,Rain,Light Rain,0,2007-06-19 17:54:00
2:54 PM,84.0,63.0,49,29.99,10.0,SSE,11.5,-,0.00,,Mostly Cloudy,160,2007-06-19 18:54:00
3:54 PM,81.0,64.9,58,29.97,10.0,Variable,5.8,-,N/A,,Mostly Cloudy,0,2007-06-19 19:54:00
4:54 PM,84.9,61.0,44,29.94,10.0,South,12.7,-,N/A,,Partly Cloudy,190,2007-06-19 20:54:00
5:54 PM,82.0,62.1,51,29.95,10.0,SSW,10.4,-,N/A,,Clear,200,2007-06-19 21:54:00
6:54 PM,73.9,61.0,64,29.99,10.0,SSW,9.2,-,0.00,Rain,Light Rain,210,2007-06-19 22:54:00
7:54 PM,71.1,64.0,78,30.00,10.0,South,3.5,-,0.00,,Scattered Clouds,180,2007-06-19 23:54:00
8:54 PM,71.1,64.0,78,30.01,10.0,Calm,Calm,-,N/A,,Overcast,0,2007-06-20 00:54:00
10:54 PM,69.1,61.0,75,30.01,10.0,NNW,10.4,-,N/A,,Overcast,340,2007-06-20 02:54:00
11:54 PM,68.0,61.0,78,30.00,10.0,NNW,11.5,-,N/A,,Mostly Cloudy,340,2007-06-20 03:54:00